contact:dominique.lefevre@mio.osupytheas.fr, maurice.libes@osupytheas.fr, didier.mallarino@osupytheas.fr
Project:EMSO http://www.emso-fr.org/EMSO-France
Depth: 2436.0 m
Title:EMSO Ligure Ouest : Data MII capteur OXYGEN
DateTime,Latitude,Longitude,Optode-Type,Optode_Serial,Oxygen,Saturation_Oxygen,Temperature
DateTime,Latitude,Longitude,Optode-Type,Optode_Serial,µmol.l-1,%,degC
2019-06-16T15:07:04,42.805,6.029,4330,1995,194.948,59.618,13.288
2019-06-16T15:10:04,42.805,6.029,4330,1995,194.900,59.604,13.289
2019-06-16T15:13:04,42.805,6.029,4330,1995,194.913,59.609,13.290
2019-06-16T15:16:04,42.805,6.029,4330,1995,194.896,59.603,13.289
2019-06-16T15:19:04,42.805,6.029,4330,1995,194.900,59.605,13.289
2019-06-16T15:22:04,42.805,6.029,4330,1995,194.874,59.596,13.289
2019-06-16T15:25:04,42.805,6.029,4330,1995,194.930,59.614,13.289
2019-06-16T15:28:04,42.805,6.029,4330,1995,194.869,59.594,13.288
2019-06-16T15:31:04,42.805,6.029,4330,1995,194.880,59.598,13.289
2019-06-16T15:34:04,42.805,6.029,4330,1995,194.919,59.609,13.288
2019-06-16T15:37:04,42.805,6.029,4330,1995,194.861,59.591,13.288
2019-06-16T15:40:04,42.805,6.029,4330,1995,194.944,59.617,13.288
2019-06-16T15:43:04,42.805,6.029,4330,1995,194.925,59.610,13.288
2019-06-16T15:46:04,42.805,6.029,4330,1995,194.936,59.614,13.288
2019-06-16T15:49:04,42.805,6.029,4330,1995,194.886,59.599,13.288
2019-06-16T15:52:04,42.805,6.029,4330,1995,194.951,59.619,13.288
2019-06-16T15:55:04,42.805,6.029,4330,1995,194.941,59.616,13.288
2019-06-16T15:58:04,42.805,6.029,4330,1995,194.942,59.616,13.288
2019-06-16T16:01:04,42.805,6.029,4330,1995,194.930,59.612,13.288
2019-06-16T16:04:04,42.805,6.029,4330,1995,194.933,59.613,13.288
2019-06-16T16:07:04,42.805,6.029,4330,1995,194.917,59.610,13.289
2019-06-16T16:10:04,42.805,6.029,4330,1995,194.867,59.594,13.289
2019-06-16T16:13:04,42.805,6.029,4330,1995,194.834,59.584,13.289
2019-06-16T16:16:04,42.805,6.029,4330,1995,194.920,59.610,13.289
2019-06-16T16:19:04,42.805,6.029,4330,1995,194.955,59.621,13.289
2019-06-16T16:22:04,42.805,6.029,4330,1995,194.900,59.604,13.289
2019-06-16T16:25:04,42.805,6.029,4330,1995,194.912,59.608,13.289
2019-06-16T16:28:04,42.805,6.029,4330,1995,194.967,59.624,13.288
2019-06-16T16:31:04,42.805,6.029,4330,1995,194.945,59.618,13.289
2019-06-16T16:34:04,42.805,6.029,4330,1995,194.941,59.617,13.289
2019-06-16T16:37:04,42.805,6.029,4330,1995,194.937,59.616,13.289
2019-06-16T16:40:04,42.805,6.029,4330,1995,194.879,59.599,13.289
2019-06-16T16:43:04,42.805,6.029,4330,1995,194.934,59.615,13.289
2019-06-16T16:46:04,42.805,6.029,4330,1995,194.861,59.593,13.290
2019-06-16T16:49:04,42.805,6.029,4330,1995,194.926,59.613,13.289
2019-06-16T16:52:03,42.805,6.029,4330,1995,194.885,59.601,13.290
2019-06-16T16:55:03,42.805,6.029,4330,1995,194.963,59.624,13.289
2019-06-16T16:58:03,42.805,6.029,4330,1995,194.898,59.604,13.289
2019-06-16T17:01:03,42.805,6.029,4330,1995,194.913,59.607,13.288
2019-06-16T17:04:03,42.805,6.029,4330,1995,194.897,59.603,13.289
2019-06-16T17:07:03,42.805,6.029,4330,1995,194.937,59.617,13.290
2019-06-16T17:10:03,42.805,6.029,4330,1995,194.888,59.600,13.288
2019-06-16T17:13:03,42.805,6.029,4330,1995,194.891,59.603,13.290
2019-06-16T17:16:03,42.805,6.029,4330,1995,194.893,59.604,13.290
2019-06-16T17:19:03,42.805,6.029,4330,1995,194.888,59.601,13.289
2019-06-16T17:22:03,42.805,6.029,4330,1995,194.885,59.601,13.290
2019-06-16T17:25:03,42.805,6.029,4330,1995,194.867,59.595,13.289
2019-06-16T17:28:03,42.805,6.029,4330,1995,194.881,59.598,13.289
2019-06-16T17:31:03,42.805,6.029,4330,1995,194.855,59.591,13.289
2019-06-16T17:34:03,42.805,6.029,4330,1995,194.800,59.574,13.289
2019-06-16T17:37:03,42.805,6.029,4330,1995,194.851,59.589,13.289
2019-06-16T17:40:03,42.805,6.029,4330,1995,194.851,59.589,13.289
2019-06-16T17:43:03,42.805,6.029,4330,1995,194.812,59.577,13.289
2019-06-16T17:46:03,42.805,6.029,4330,1995,194.812,59.576,13.288
2019-06-16T17:49:03,42.805,6.029,4330,1995,194.819,59.580,13.289
2019-06-16T17:52:03,42.805,6.029,4330,1995,194.826,59.581,13.288
2019-06-16T17:55:03,42.805,6.029,4330,1995,194.839,59.585,13.288
2019-06-16T17:58:03,42.805,6.029,4330,1995,194.882,59.598,13.288
2019-06-16T18:01:03,42.805,6.029,4330,1995,194.854,59.589,13.288
2019-06-16T18:04:03,42.805,6.029,4330,1995,194.892,59.600,13.288
2019-06-16T18:07:03,42.805,6.029,4330,1995,194.858,59.590,13.288
2019-06-16T18:10:03,42.805,6.029,4330,1995,194.889,59.600,13.288
2019-06-16T18:13:03,42.805,6.029,4330,1995,194.805,59.576,13.290
2019-06-16T18:16:03,42.805,6.029,4330,1995,194.849,59.588,13.288
2019-06-16T18:19:03,42.805,6.029,4330,1995,194.807,59.575,13.288
2019-06-16T18:22:03,42.805,6.029,4330,1995,194.800,59.573,13.289
2019-06-16T18:25:03,42.805,6.029,4330,1995,194.831,59.582,13.288
2019-06-16T18:28:03,42.805,6.029,4330,1995,194.816,59.578,13.288
2019-06-16T18:31:03,42.805,6.029,4330,1995,194.825,59.581,13.289
2019-06-16T18:34:03,42.805,6.029,4330,1995,194.861,59.592,13.289
2019-06-16T18:37:03,42.805,6.029,4330,1995,194.874,59.596,13.289
2019-06-16T18:40:03,42.805,6.029,4330,1995,194.854,59.591,13.290
2019-06-16T18:43:03,42.805,6.029,4330,1995,194.826,59.581,13.289
2019-06-16T18:46:03,42.805,6.029,4330,1995,194.803,59.575,13.289
2019-06-16T18:49:03,42.805,6.029,4330,1995,194.846,59.588,13.289
2019-06-16T18:52:03,42.805,6.029,4330,1995,194.832,59.584,13.289
2019-06-16T18:55:03,42.805,6.029,4330,1995,194.745,59.557,13.289
2019-06-16T18:58:03,42.805,6.029,4330,1995,194.786,59.571,13.290
2019-06-16T19:01:03,42.805,6.029,4330,1995,194.735,59.555,13.290
2019-06-16T19:04:03,42.805,6.029,4330,1995,194.793,59.573,13.290
2019-06-16T19:07:03,42.805,6.029,4330,1995,194.796,59.575,13.291
2019-06-16T19:10:03,42.805,6.029,4330,1995,194.768,59.565,13.290
2019-06-16T19:13:03,42.805,6.029,4330,1995,194.815,59.579,13.290
2019-06-16T19:16:03,42.805,6.029,4330,1995,194.766,59.564,13.290
2019-06-16T19:19:03,42.805,6.029,4330,1995,194.805,59.576,13.290
2019-06-16T19:22:03,42.805,6.029,4330,1995,194.819,59.581,13.290
2019-06-16T19:25:03,42.805,6.029,4330,1995,194.814,59.579,13.289
2019-06-16T19:28:03,42.805,6.029,4330,1995,194.837,59.586,13.289
2019-06-16T19:31:03,42.805,6.029,4330,1995,194.823,59.582,13.290
2019-06-16T19:34:03,42.805,6.029,4330,1995,194.777,59.568,13.289
2019-06-16T19:37:03,42.805,6.029,4330,1995,194.743,59.557,13.289
2019-06-16T19:40:03,42.805,6.029,4330,1995,194.767,59.564,13.289
2019-06-16T19:43:03,42.805,6.029,4330,1995,194.794,59.572,13.289
2019-06-16T19:46:03,42.805,6.029,4330,1995,194.780,59.568,13.289
2019-06-16T19:49:03,42.805,6.029,4330,1995,194.765,59.564,13.290
2019-06-16T19:52:03,42.805,6.029,4330,1995,194.801,59.574,13.289
2019-06-16T19:55:03,42.805,6.029,4330,1995,194.766,59.563,13.289
2019-06-16T19:58:03,42.805,6.029,4330,1995,194.760,59.561,13.288
2019-06-16T20:01:03,42.805,6.029,4330,1995,194.761,59.561,13.288
2019-06-16T20:04:03,42.805,6.029,4330,1995,194.713,59.546,13.288
2019-06-16T20:07:03,42.805,6.029,4330,1995,194.700,59.543,13.289
2019-06-16T20:10:03,42.805,6.029,4330,1995,194.750,59.557,13.288
2019-06-16T20:13:03,42.805,6.029,4330,1995,194.657,59.530,13.289
2019-06-16T20:16:03,42.805,6.029,4330,1995,194.730,59.552,13.288
2019-06-16T20:19:03,42.805,6.029,4330,1995,194.768,59.563,13.288
2019-06-16T20:22:03,42.805,6.029,4330,1995,194.722,59.549,13.288
2019-06-16T20:25:03,42.805,6.029,4330,1995,194.591,59.509,13.288
2019-06-16T20:28:03,42.805,6.029,4330,1995,194.637,59.524,13.289
2019-06-16T20:31:03,42.805,6.029,4330,1995,194.686,59.538,13.288
2019-06-16T20:34:03,42.805,6.029,4330,1995,194.696,59.541,13.288
2019-06-16T20:37:03,42.805,6.029,4330,1995,194.704,59.544,13.288
2019-06-16T20:40:03,42.805,6.029,4330,1995,194.680,59.536,13.289
2019-06-16T20:43:03,42.805,6.029,4330,1995,194.720,59.549,13.289
2019-06-16T20:46:03,42.805,6.029,4330,1995,194.647,59.527,13.289
2019-06-16T20:49:03,42.805,6.029,4330,1995,194.721,59.550,13.289
2019-06-16T20:52:03,42.805,6.029,4330,1995,194.675,59.537,13.290
2019-06-16T20:55:03,42.805,6.029,4330,1995,194.688,59.540,13.289
2019-06-16T20:58:03,42.805,6.029,4330,1995,194.699,59.543,13.289
2019-06-16T21:01:03,42.805,6.029,4330,1995,194.771,59.565,13.289
2019-06-16T21:04:03,42.805,6.029,4330,1995,194.770,59.566,13.290
2019-06-16T21:07:03,42.805,6.029,4330,1995,194.671,59.535,13.290
2019-06-16T21:10:03,42.805,6.029,4330,1995,194.756,59.561,13.290
2019-06-16T21:13:03,42.805,6.029,4330,1995,194.742,59.557,13.289
2019-06-16T21:16:03,42.805,6.029,4330,1995,194.769,59.566,13.290
2019-06-16T21:19:03,42.805,6.029,4330,1995,194.820,59.581,13.290
2019-06-16T21:22:03,42.805,6.029,4330,1995,194.754,59.560,13.290
2019-06-16T21:25:03,42.805,6.029,4330,1995,194.709,59.547,13.290
2019-06-16T21:28:03,42.805,6.029,4330,1995,194.737,59.556,13.290
2019-06-16T21:31:03,42.805,6.029,4330,1995,194.723,59.551,13.290
2019-06-16T21:34:03,42.805,6.029,4330,1995,194.769,59.565,13.290
2019-06-16T21:37:03,42.805,6.029,4330,1995,194.768,59.564,13.289
2019-06-16T21:40:03,42.805,6.029,4330,1995,194.708,59.547,13.290
2019-06-16T21:43:03,42.805,6.029,4330,1995,194.701,59.544,13.289
2019-06-16T21:46:03,42.805,6.029,4330,1995,194.700,59.545,13.290
2019-06-16T21:49:03,42.805,6.029,4330,1995,194.733,59.554,13.290
2019-06-16T21:52:03,42.805,6.029,4330,1995,194.636,59.526,13.291
2019-06-16T21:55:03,42.805,6.029,4330,1995,194.701,59.544,13.289
2019-06-16T21:58:03,42.805,6.029,4330,1995,194.720,59.550,13.290
2019-06-16T22:01:03,42.805,6.029,4330,1995,194.694,59.542,13.289
2019-06-16T22:04:03,42.805,6.029,4330,1995,194.714,59.548,13.289
2019-06-16T22:07:03,42.805,6.029,4330,1995,194.700,59.544,13.289
2019-06-16T22:10:03,42.805,6.029,4330,1995,194.678,59.536,13.289
2019-06-16T22:13:03,42.805,6.029,4330,1995,194.762,59.562,13.289
2019-06-16T22:16:03,42.805,6.029,4330,1995,194.770,59.564,13.288
2019-06-16T22:19:03,42.805,6.029,4330,1995,194.730,59.551,13.288
2019-06-16T22:22:03,42.805,6.029,4330,1995,194.707,59.545,13.288
2019-06-16T22:25:03,42.805,6.029,4330,1995,194.810,59.576,13.288
2019-06-16T22:28:03,42.805,6.029,4330,1995,194.783,59.567,13.288
2019-06-16T22:31:03,42.805,6.029,4330,1995,194.854,59.590,13.289
2019-06-16T22:34:03,42.805,6.029,4330,1995,194.803,59.575,13.289
2019-06-16T22:37:03,42.805,6.029,4330,1995,194.787,59.569,13.288
2019-06-16T22:40:03,42.805,6.029,4330,1995,194.812,59.577,13.288
2019-06-16T22:43:03,42.805,6.029,4330,1995,194.796,59.572,13.289
2019-06-16T22:46:03,42.805,6.029,4330,1995,194.758,59.560,13.288
2019-06-16T22:49:03,42.805,6.029,4330,1995,194.801,59.574,13.289
2019-06-16T22:52:03,42.805,6.029,4330,1995,194.791,59.571,13.289
2019-06-16T22:55:03,42.805,6.029,4330,1995,194.765,59.563,13.289
2019-06-16T22:58:03,42.805,6.029,4330,1995,194.794,59.572,13.289
2019-06-16T23:01:03,42.805,6.029,4330,1995,194.801,59.574,13.288
2019-06-16T23:04:03,42.805,6.029,4330,1995,194.817,59.579,13.289
2019-06-16T23:07:03,42.805,6.029,4330,1995,194.796,59.573,13.289
2019-06-16T23:10:03,42.805,6.029,4330,1995,194.803,59.575,13.289
2019-06-16T23:13:03,42.805,6.029,4330,1995,194.797,59.573,13.289
2019-06-16T23:16:03,42.805,6.029,4330,1995,194.823,59.582,13.290
2019-06-16T23:19:03,42.805,6.029,4330,1995,194.847,59.589,13.290
2019-06-16T23:22:03,42.805,6.029,4330,1995,194.770,59.565,13.289
2019-06-16T23:25:03,42.805,6.029,4330,1995,194.834,59.585,13.289
2019-06-16T23:28:03,42.805,6.029,4330,1995,194.835,59.585,13.289
2019-06-16T23:31:03,42.805,6.029,4330,1995,194.861,59.593,13.289
2019-06-16T23:34:03,42.805,6.029,4330,1995,194.812,59.580,13.291
2019-06-16T23:37:03,42.805,6.029,4330,1995,194.823,59.582,13.290
2019-06-16T23:40:03,42.805,6.029,4330,1995,194.808,59.577,13.290
2019-06-16T23:43:03,42.805,6.029,4330,1995,194.809,59.578,13.290
2019-06-16T23:46:03,42.805,6.029,4330,1995,194.801,59.575,13.290
2019-06-16T23:49:03,42.805,6.029,4330,1995,194.823,59.582,13.290
2019-06-16T23:52:03,42.805,6.029,4330,1995,194.812,59.580,13.291
2019-06-16T23:55:03,42.805,6.029,4330,1995,194.804,59.577,13.290
2019-06-16T23:58:03,42.805,6.029,4330,1995,194.808,59.577,13.290
